STARLINK-35111

Last updated on Tue Sep 16 2025 00:02:08 GMT+0000 (Coordinated Universal Time)

1 65463U 25195F 25257.90211291 -.00117111 00000+0 -68637-3 0 9998 2 65463 53.1557 0.8411 0002195 347.3350 12.7616 15.77839506 2992
UTC large
Height (km)
Speed (km/s)
/
Latitude / Longitude
Inclination (degrees)
Orbital Period (minutes)
Azimuth
Elevation
Range (km)
Doppler Factor

Next 0 passes for location: London (51.5072 / 0.1276)

Sorry there are no passes over London.